User: anonymous   Login
Location: Albany
(35.0000°S, 118.0000°E)
Time: 18:30:37
(UTC-04:00)
Language:

Cosmos 1346 Rocket - Orbit

View from above orbital plane
View from above orbital plane
View from above satellite
View from above satellite

Ground track
Ground track

The orbit data is extracted from the following two-line orbital elements,

1 13121U 82027B   16243.13758495  .00001386  00000-0  87882-4 0  9990
2 13121  81.1656  93.4707 0027706  50.3378 310.0284 15.07984346873110
Epoch (UTC): 30 August 2016 03:18:07
Eccentricity: 0.0027706
inclination: 81.1656°
perigee height: 523 km
apogee height: 561 km
right ascension of ascending node: 93.4707°
argument of perigee: 50.3378°
revolutions per day: 15.07984346
mean anomaly at epoch: 310.0284°
orbit number at epoch: 87311

The dashed part of the orbit path shows where the satellite is in the earth's shadow,  

DLR